Regional Weather Roundup
Issued by NWS Jackson, KY

Home | Current Version | Previous Version | Graphics & Text | Print | Product List | Glossary On
Versions: 1 2 3 4 5 6 7 8 9 10 11 12 13 14 15 16 17 18 19 20 21 22 23 24 25 26 27 28 29 30 31 32 33 34 35 36 37 38 39 40 41 42 43 44 45 46 47
000
ASUS43 KJKL 031410
RWRJKL

EAST KENTUCKY HOURLY WEATHER ROUNDUP
NATIONAL WEATHER SERVICE JACKSON KY
1000 AM EDT MON AUG 03 2015

NOTE: "FAIR" INDICATES FEW OR NO CLOUDS BELOW 12,000 FEET WITH
NO SIGNIFICANT WEATHER AND/OR OBSTRUCTIONS TO VISIBILITY.

* THESE REPORTS ARE NOT UNDER NWS QUALITY CONTROL AND MAY NOT
  REPORT WEATHER SUCH AS PRECIPITATION AND FOG.

KYZ079-080-083-085-087-088-110-112-115-119-120-031500
...EASTERN KENTUCKY...

CITY           SKY/WX    TMP DP  RH WIND       PRES   REMARKS
JACKSON        MOSUNNY   72  60  66 VRB3      30.00F
LONDON         PTSUNNY   75  61  61 NE10      30.00R
SOMERSET*      MOSUNNY   72  63  73 CALM      29.99R
MONTICELLO*    SUNNY     79  69  71 CALM      30.00R
WILLIAMSBURG*  MOSUNNY   73  66  78 CALM      29.99S
MIDDLESBORO*   MOSUNNY   65  63  91 CALM      30.00F
HAZARD APT*    SUNNY     73  64  73 NE5       30.01F
BLACK MTN*       N/A     66  59  77 N6          N/A
PIKEVILLE APT* SUNNY     72  61  68 NE8       30.02F
BIG SANDY*     MOSUNNY   74  62  67 NE9       30.01F
MOREHEAD APT*  CLOUDY    72  61  68 SE12      29.94F
$$

KYZ035-036-041-042-044-050-067-078-099-031500
...CENTRAL KENTUCKY...

CITY           SKY/WX    TMP DP  RH WIND       PRES   REMARKS
MT STERLING*   SUNNY     72  61  68 SE8       29.95F
FLEMING/MASON* SUNNY     72  64  78 S9        29.91R
DANVILLE*      MOSUNNY   70  61  73 SE6       29.99F
RICHMOND*      MOSUNNY   72  61  68 SE9       29.97F
LEXINGTON      MOSUNNY   71  62  73 SE13      29.95F
FRANKFORT      MOSUNNY   70  62  76 SE9       29.93F
$$

KYZ091>093-OHZ055-061-077-WVZ005-015-034-035-042-031500
...SOUTHERN OHIO/WEST VIRGINIA...

CITY           SKY/WX    TMP DP  RH WIND       PRES   REMARKS
COVINGTON      MOSUNNY   70  64  81 S10       29.90S
COLUMBUS       PTSUNNY   70  62  76 S8        29.83F
DAYTON         PTSUNNY   68  64  87 SW14      29.87S
WILMINGTON     MOSUNNY   69  62  78 S10       29.88R
HUNTINGTON     CLOUDY    69  61  75 S8        29.91F
CHARLESTON     CLOUDY    72  62  71 S5        29.98F
PINEVILLE*     SUNNY     75  65  71 MISG      30.07F
BECKLEY        MOSUNNY   71  58  63 NW10      30.05S
BLUEFIELD      MOSUNNY   74  58  57 W7        30.08R
$$

VAZ002-007-008-TNZ017-027-036-066-071-031500
...SOUTHWEST VIRGINIA/EAST TENNESSEE...

CITY           SKY/WX    TMP DP  RH WIND       PRES   REMARKS
WISE*          SUNNY     73  55  53 NW8       30.08F
ABINGDON*      MOSUNNY   78  59  52 CALM      30.04S
BRISTOL        MOSUNNY   74  63  68 CALM      30.02R
KNOXVILLE      MOSUNNY   76  65  68 CALM      29.98
OAK RIDGE      SUNNY     77  65  66 CALM      29.99S
CROSSVILLE     SUNNY     78  60  53 W3        30.02S
NASHVILLE      MOSUNNY   80  45  28 S3        29.97R
$$

...KEY TO REMARKS...
VSB - VISIBILITY IN MILES
WCI - WIND CHILL INDEX
HX  - HEAT INDEX

$$


USA.gov is the U.S. government's official web portal to all federal, state and local government web resources and services.